Location: Baix
(44.7118°N, 4.7648°E)
Time: 09:45:42
(UTC+00:00)

Vanguard 2 Rocket - Pass Details

Date: 26 November 2020
Orbit: 554 x 3325 km, 32.9° (Epoch: 21 January)

Event Time Altitude Azimuth Distance (km) Brightness Sun altitude
Rises 13:55:15 0° 275° (W) 6,343 11.6 16.2°
Reaches altitude 10° 14:01:07 10° 263° (W) 4,818 11.4 15.5°
Maximum altitude 14:09:56 23° 219° (SW) 3,010 12.2 14.6°
Drops below altitude 10° 14:16:02 10° 171° (S) 3,189 10.4 13.9°
Sets 14:18:59 0° 156° (SSE) 3,805 10.4 13.6°
